Weather History for Proserpine, QU

Change the Weather History Date:

Thursday, January 16, 2014

  Actual Average Record
Temperature  
Mean Temperature 78 °F -  
Max Temperature 85 °F - - ()
Min Temperature 71 °F - - ()
Cooling Degree Days 13    
Growing Degree Days 28 (Base 50)    
Moisture  
Dew Point 70 °F    
Average Humidity 77    
Maximum Humidity 94    
Minimum Humidity 47    
Precipitation  
Precipitation 0.08 in - - ()
Sea Level Pressure  
Sea Level Pressure 29.90 in    
Wind  
Wind Speed 11 mph ()    
Max Wind Speed 20 mph    
Max Gust Speed 31 mph    
Visibility 6.2 miles    
Events      
T = Trace of Precipitation, MM = Missing Value Source: Averaged Metar Reports

Daily Weather History Graph

Daily Weather History Graph

Search for Another Location

Airport:

Trip Planner

Search our weather history database for the weather conditions in past years. The results will help you decide how hot, cold, wet, or windy it might be!

Date:

Astronomy

Jan. 16, 2014 Rise Set
Actual Time 5:38 AM EST 6:52 PM EST
Civil Twilight 5:14 AM EST 7:16 PM EST
Nautical Twilight 4:45 AM EST 7:44 PM EST
Astronomical Twilight 4:16 AM EST 8:14 PM EST
Moon 6:42 PM EST (1/16) 5:27 AM EST (1/16)
Length of Visible Light 14h 02m
Length of Day
13h 13m
Full, 100% of the Moon is Illuminated
Jan 16
Full
Jan 16
Full
Jan 24
Last Quarter
Jan 31
New
Feb 7
First Quarter

Hourly Weather History & Observations

Time (EST) Temp. Heat Index Dew Point Humidity Pressure Visibility Wind Dir Wind Speed Gust Speed Precip Events Conditions
12:00 AM 72 °F - 70 °F 93% 29.95 in - South 9.2 mph - -   Overcast
12:00 AM 71.6 °F - 69.8 °F 94% 29.95 in 6.2 mi South 9.2 mph - N/A   Overcast
1:00 AM 71.6 °F - 69.8 °F 94% 29.92 in 6.2 mi South 9.2 mph - N/A   Scattered Clouds
2:00 AM 71.6 °F - 69.8 °F 94% 29.89 in 6.2 mi South 10.4 mph - N/A   Scattered Clouds
3:00 AM 72 °F - 70 °F 92% 29.88 in - South 9.2 mph - -  
3:00 AM 71.6 °F - 69.8 °F 94% 29.86 in 6.2 mi South 9.2 mph - N/A   Unknown
4:00 AM 73.4 °F - 69.8 °F 88% 29.86 in 6.2 mi South 9.2 mph - N/A   Mostly Cloudy
5:00 AM 73.4 °F - 69.8 °F 88% 29.89 in 6.2 mi South 10.4 mph - N/A   Scattered Clouds
6:00 AM 73 °F - 70 °F 88% 29.92 in - South 9.2 mph - -  
6:00 AM 73.4 °F - 69.8 °F 88% 29.92 in 6.2 mi South 9.2 mph - N/A   Mostly Cloudy
7:00 AM 75.2 °F - 69.8 °F 83% 29.92 in 6.2 mi South 11.5 mph - N/A   Mostly Cloudy
8:00 AM 78.8 °F - 71.6 °F 78% 29.95 in 6.2 mi South 10.4 mph - N/A   Mostly Cloudy
9:00 AM 81 °F - 70 °F 61% 29.95 in - SE 16.1 mph - -  
9:00 AM 80.6 °F 83.9 °F 69.8 °F 70% 29.95 in 6.2 mi SE 16.1 mph - N/A   Mostly Cloudy
10:00 AM 84.2 °F 88.4 °F 69.8 °F 62% 29.92 in 6.2 mi SE 19.6 mph - N/A   Mostly Cloudy
11:00 AM 84.2 °F 87.3 °F 68.0 °F 58% 29.92 in 6.2 mi ESE 19.6 mph 31.1 mph N/A   Scattered Clouds
12:00 PM 84 °F - 67 °F 47% 29.92 in - ESE 19.6 mph - -  
12:00 PM 84.2 °F 86.6 °F 66.2 °F 55% 29.92 in 6.2 mi ESE 19.6 mph - N/A   Scattered Clouds
1:00 PM 84.2 °F 87.3 °F 68.0 °F 58% 29.89 in 6.2 mi ESE 18.4 mph - N/A   Scattered Clouds
2:00 PM 84.2 °F 86.6 °F 66.2 °F 55% 29.89 in 6.2 mi ESE 19.6 mph - N/A   Unknown
3:00 PM 85 °F - 69 °F 49% 29.86 in - ESE 18.4 mph - -  
3:00 PM 84.2 °F 88.4 °F 69.8 °F 62% 29.86 in 6.2 mi ESE 18.4 mph - N/A   Unknown
4:00 PM 80.6 °F 83.9 °F 69.8 °F 70% 29.83 in 6.2 mi ESE 17.3 mph - N/A   Unknown
5:00 PM 80.6 °F 84.6 °F 71.6 °F 74% 29.83 in 6.2 mi ESE 15.0 mph - N/A   Unknown
6:00 PM 80 °F - 71 °F 66% 29.87 in - SE 15.0 mph - -  
6:00 PM 78.8 °F - 69.8 °F 74% 29.86 in 6.2 mi SE 15.0 mph - N/A   Scattered Clouds
7:00 PM 77.0 °F - 69.8 °F 78% 29.89 in 6.2 mi SSE 12.7 mph - N/A   Unknown
8:00 PM 77.0 °F - 71.6 °F 83% 29.86 in 6.2 mi South 9.2 mph - N/A   Scattered Clouds
9:00 PM 74 °F - 72 °F 91% 29.90 in - SE 12.7 mph - -   Overcast
9:00 PM 73.4 °F - 71.6 °F 94% 29.89 in 6.2 mi SE 12.7 mph - N/A   Overcast
10:00 PM 75.2 °F - 71.6 °F 89% 29.89 in 6.2 mi SSE 9.2 mph - N/A   Mostly Cloudy
11:03 PM 75.2 °F - 73.4 °F 94% 29.89 in 6.2 mi SSE 10.4 mph - N/A   Mostly Cloudy